Sigfox identifier Datetime Temperature Humidity SNR
002EF8EE 2019-04-23 15:02:28 16 32 21.6
002EF8EE 2019-04-23 14:28:29 15.9 32 21.5
002EF8EE 2019-04-23 13:54:30 15.8 32 21.7
002EF8EE 2019-04-23 13:20:31 15.8 32 21.7
002EF8EE 2019-04-23 12:46:31 15.7 32 21.9
002EF8EE 2019-04-23 12:12:31 15.7 32 22
002EF8EE 2019-04-23 11:38:33 15.7 32 22.1
002EF8EE 2019-04-23 11:04:34 15.7 32 22.1
002EF8EE 2019-04-23 10:30:34 15.7 32 22
002EF8EE 2019-04-23 09:56:37 15.6 32 22
002EF8EE 2019-04-23 09:22:38 15.6 32 21.8
002EF8EE 2019-04-23 08:48:39 15.5 32 21.8
002EF8EE 2019-04-23 08:14:40 15.6 32 21.5
002EF8EE 2019-04-23 07:40:43 15.5 32 21.5
002EF8EE 2019-04-23 07:06:47 15.5 32 21.5
002EF8EE 2019-04-23 06:32:45 15.5 32 21.5
002EF8EE 2019-04-23 05:58:46 15.5 32 21.6
002EF8EE 2019-04-23 05:24:48 15.5 32 21.7
002EF8EE 2019-04-23 04:50:49 15.5 32 21.8
002EF8EE 2019-04-23 04:16:51 15.6 32 21.8
002EF8EE 2019-04-23 03:42:53 15.5 32 21.9
002EF8EE 2019-04-23 03:08:55 15.5 32 21.9
002EF8EE 2019-04-23 02:34:56 15.6 32 21.9
002EF8EE 2019-04-23 02:00:56 15.6 32 22
002EF8EE 2019-04-23 01:26:57 15.7 32 22.1
002EF8EE 2019-04-23 00:52:58 15.7 31 22.1
002EF8EE 2019-04-23 00:18:59 15.7 32 22.2
002EF8EE 2019-04-22 23:45:01 15.7 32 22.2
002EF8EE 2019-04-22 23:11:02 15.7 32 22.2
002EF8EE 2019-04-22 22:37:03 15.7 31 22.2
002EF8EE 2019-04-22 22:03:04 15.8 32 22.2
002EF8EE 2019-04-22 21:29:05 15.7 31 22.2
002EF8EE 2019-04-22 20:55:06 15.8 31 22.2
002EF8EE 2019-04-22 20:21:08 15.7 31 22.1
002EF8EE 2019-04-22 19:47:08 15.8 31 22
002EF8EE 2019-04-22 19:13:08 15.9 31 21.8
002EF8EE 2019-04-22 18:39:08 15.8 31 21.8
002EF8EE 2019-04-22 18:05:07 15.8 31 21.7
002EF8EE 2019-04-22 17:31:08 15.8 31 21.6
002EF8EE 2019-04-22 16:57:08 15.7 31 21.6
002EF8EE 2019-04-22 16:23:08 15.7 31 21.6
002EF8EE 2019-04-22 15:49:09 15.7 31 21.5
002EF8EE 2019-04-22 15:15:10 15.7 31 21.3
002EF8EE 2019-04-22 14:41:11 15.7 31 21.3
002EF8EE 2019-04-22 14:07:12 15.7 31 21.3
002EF8EE 2019-04-22 13:33:12 15.7 31 21.3
002EF8EE 2019-04-22 12:59:14 15.6 31 21.2
002EF8EE 2019-04-22 12:25:16 15.6 31 21
002EF8EE 2019-04-22 11:51:17 15.6 31 21
002EF8EE 2019-04-22 11:17:19 15.6 31 21.1
002EF8EE 2019-04-22 10:43:20 15.6 31 21.1
002EF8EE 2019-04-22 10:09:22 15.6 31 21.1
002EF8EE 2019-04-22 09:35:23 15.6 31 21
002EF8EE 2019-04-22 09:01:23 15.6 31 21
002EF8EE 2019-04-22 08:27:24 15.5 31 21.1
002EF8EE 2019-04-22 07:53:26 15.5 31 21
002EF8EE 2019-04-22 07:19:27 15.6 31 21
002EF8EE 2019-04-22 06:45:29 15.5 31 21
002EF8EE 2019-04-22 06:11:31 15.5 31 21.1
002EF8EE 2019-04-22 05:37:32 15.5 31 21.2
002EF8EE 2019-04-22 05:03:33 15.5 31 21.3
002EF8EE 2019-04-22 04:29:34 15.5 31 21.3
002EF8EE 2019-04-22 03:55:35 15.5 31 21.6
002EF8EE 2019-04-22 03:21:37 15.5 31 21.7
002EF8EE 2019-04-22 02:47:38 15.5 31 21.7
002EF8EE 2019-04-22 02:13:41 15.5 31 21.6
002EF8EE 2019-04-22 01:39:43 15.5 31 21.7
002EF8EE 2019-04-22 01:05:44 15.5 31 21.8
002EF8EE 2019-04-22 00:31:45 15.5 31 21.8
002EF8EE 2019-04-21 23:57:46 15.5 31 21.7
002EF8EE 2019-04-21 23:23:48 15.5 31 21.7
002EF8EE 2019-04-21 22:49:49 15.5 31 21.7
002EF8EE 2019-04-21 22:15:50 15.5 31 21.8
002EF8EE 2019-04-21 21:41:52 15.4 31 21.7
002EF8EE 2019-04-21 21:07:53 15.5 31 21.7
002EF8EE 2019-04-21 20:33:55 15.4 31 21.6
002EF8EE 2019-04-21 19:59:56 15.5 30 21.4
002EF8EE 2019-04-21 19:25:57 15.5 30 21.4
002EF8EE 2019-04-21 18:51:59 15.5 30 21.3
002EF8EE 2019-04-21 18:18:00 15.4 30 21.2
002EF8EE 2019-04-21 17:44:01 15.4 30 21.2
002EF8EE 2019-04-21 17:10:02 15.4 30 21.1
002EF8EE 2019-04-21 16:36:05 15.4 30 21.1
002EF8EE 2019-04-21 16:02:07 15.4 30 21.1
002EF8EE 2019-04-21 15:28:09 15.4 30 21
002EF8EE 2019-04-21 14:54:10 15.4 30 21
002EF8EE 2019-04-21 14:20:10 15.4 30 21
002EF8EE 2019-04-21 13:46:12 15.3 30 20.7
002EF8EE 2019-04-21 13:12:13 15.4 30 20.7
002EF8EE 2019-04-21 12:38:14 15.5 30 20.6
002EF8EE 2019-04-21 12:04:15 15.5 30 20.6
002EF8EE 2019-04-21 11:30:16 15.5 30 20.7
002EF8EE 2019-04-21 10:56:17 15.5 30 20.5
002EF8EE 2019-04-21 10:22:18 15.5 30 20.7
002EF8EE 2019-04-21 09:48:20 15.6 30 20.8
002EF8EE 2019-04-21 09:14:21 15.5 30 20.9
002EF8EE 2019-04-21 08:40:22 15.5 30 20.9
002EF8EE 2019-04-21 08:06:24 15.6 30 21
002EF8EE 2019-04-21 07:32:26 15.5 30 21.2
002EF8EE 2019-04-21 06:58:27 15.5 30 21.3
002EF8EE 2019-04-21 06:24:28 15.6 30 21.4
002EF8EE 2019-04-21 05:50:29 15.5 30 21.5
002EF8EE 2019-04-21 05:16:30 15.5 30 21.7
002EF8EE 2019-04-21 04:42:31 15.5 30 21.7
002EF8EE 2019-04-21 04:08:32 15.5 30 21.8
002EF8EE 2019-04-21 03:34:34 15.6 30 21.8
002EF8EE 2019-04-21 03:00:35 15.5 30 21.9
002EF8EE 2019-04-21 02:26:36 15.5 30 22
002EF8EE 2019-04-21 01:52:37 15.6 30 22.1
002EF8EE 2019-04-21 01:18:37 15.5 30 22.1
002EF8EE 2019-04-21 00:44:38 15.6 30 22.3
002EF8EE 2019-04-21 00:10:39 15.5 30 22.4
002EF8EE 2019-04-20 23:36:40 15.5 30 22.5
002EF8EE 2019-04-20 23:02:42 15.5 30 22.5
002EF8EE 2019-04-20 22:28:43 15.5 30 22.6
002EF8EE 2019-04-20 21:54:44 15.6 30 22.7
002EF8EE 2019-04-20 21:20:45 15.5 29 22.6
002EF8EE 2019-04-20 20:46:47 15.5 30 22.7
002EF8EE 2019-04-20 20:12:49 15.5 29 22.6
002EF8EE 2019-04-20 19:38:50 15.5 29 22.5
002EF8EE 2019-04-20 19:04:53 15.6 29 22.4
002EF8EE 2019-04-20 18:30:55 15.6 29 22.3
002EF8EE 2019-04-20 17:56:57 15.5 29 22.3
002EF8EE 2019-04-20 17:22:59 15.5 29 22.2
002EF8EE 2019-04-20 16:49:01 15.6 29 22
002EF8EE 2019-04-20 16:15:03 15.6 29 22
002EF8EE 2019-04-20 15:41:05 15.5 29 22
002EF8EE 2019-04-20 15:07:07 15.5 29 21.9
002EF8EE 2019-04-20 14:33:09 15.5 29 21.9
002EF8EE 2019-04-20 13:59:12 15.6 29 21.8
002EF8EE 2019-04-20 13:25:15 15.6 29 21.7
002EF8EE 2019-04-20 12:51:16 15.5 29 21.6
002EF8EE 2019-04-20 12:17:19 15.5 29 21.6
002EF8EE 2019-04-20 11:43:20 15.6 29 21.3
002EF8EE 2019-04-20 11:09:23 15.6 29 21.3
002EF8EE 2019-04-20 10:35:24 15.6 29 21.2
002EF8EE 2019-04-20 10:01:26 15.7 29 21.1
002EF8EE 2019-04-20 09:27:27 15.7 29 21.2
002EF8EE 2019-04-20 08:53:29 15.7 29 21.3
002EF8EE 2019-04-20 08:19:29 15.7 29 21.2
002EF8EE 2019-04-20 07:45:30 15.8 29 21.2
002EF8EE 2019-04-20 07:11:31 15.7 29 21.4
002EF8EE 2019-04-20 06:37:33 15.8 29 21.4
002EF8EE 2019-04-20 06:03:35 15.7 29 21.4
002EF8EE 2019-04-20 05:29:36 15.7 29 21.4
002EF8EE 2019-04-20 04:55:36 15.7 29 21.5
002EF8EE 2019-04-20 04:21:37 15.7 29 21.6
002EF8EE 2019-04-20 03:47:38 15.7 29 21.7
002EF8EE 2019-04-20 03:13:39 15.8 29 21.8
002EF8EE 2019-04-20 02:39:41 16 29 21.8
002EF8EE 2019-04-20 02:05:42 16 29 21.7
002EF8EE 2019-04-20 01:31:44 16 29 21.9
002EF8EE 2019-04-20 00:57:50 16 29 21.9
002EF8EE 2019-04-20 00:23:47 15.9 29 22
002EF8EE 2019-04-19 23:49:48 15.9 29 22.1
002EF8EE 2019-04-19 23:15:49 15.9 28 22.2
002EF8EE 2019-04-19 22:41:51 16 28 22.3
002EF8EE 2019-04-19 22:07:52 16 28 22.3
002EF8EE 2019-04-19 21:33:53 16 28 22.4
002EF8EE 2019-04-19 20:59:54 16 28 22.4
002EF8EE 2019-04-19 20:25:54 16.1 28 22.3
002EF8EE 2019-04-19 19:51:55 16.1 28 22.3
002EF8EE 2019-04-19 19:17:56 16.1 28 22.2
002EF8EE 2019-04-19 18:43:57 16.1 28 22
002EF8EE 2019-04-19 18:09:58 16 28 22.1
002EF8EE 2019-04-19 17:35:59 16 28 22.1
002EF8EE 2019-04-19 17:02:01 15.9 28 22
002EF8EE 2019-04-19 16:28:02 16 28 21.9
002EF8EE 2019-04-19 15:54:04 15.9 28 21.9
002EF8EE 2019-04-19 15:20:06 16 28 21.9
002EF8EE 2019-04-19 14:46:08 15.9 28 21.8
002EF8EE 2019-04-19 14:12:10 15.9 28 21.9
002EF8EE 2019-04-19 13:38:12 16 28 21.8
002EF8EE 2019-04-19 13:04:14 16 28 21.8
002EF8EE 2019-04-19 12:30:16 16 28 21.8
002EF8EE 2019-04-19 11:56:17 16 28 21.9
002EF8EE 2019-04-19 11:22:18 15.9 28 21.9
002EF8EE 2019-04-19 10:48:20 15.9 28 21.8
002EF8EE 2019-04-19 10:14:22 15.9 28 21.7
002EF8EE 2019-04-19 09:40:24 15.9 28 21.7
002EF8EE 2019-04-19 09:06:25 15.9 28 21.6
002EF8EE 2019-04-19 08:32:26 16 28 21.7
002EF8EE 2019-04-19 07:58:28 16 28 21.9
002EF8EE 2019-04-19 07:24:30 16 28 22
002EF8EE 2019-04-19 06:50:31 16 28 22
002EF8EE 2019-04-19 06:16:32 15.9 28 22.1
002EF8EE 2019-04-19 05:42:33 16 28 22.2
002EF8EE 2019-04-19 05:08:34 16 28 22.3
002EF8EE 2019-04-19 04:34:36 16 27 22.7
002EF8EE 2019-04-19 04:00:38 16.2 27 22.9
002EF8EE 2019-04-19 03:26:40 16.1 27 23
002EF8EE 2019-04-19 02:52:42 16.2 27 22.9
002EF8EE 2019-04-19 02:18:44 16.1 27 23
002EF8EE 2019-04-19 01:44:45 16.2 27 23.1
002EF8EE 2019-04-19 01:10:47 16.3 27 23.2
002EF8EE 2019-04-19 00:36:49 16.4 27 23.3
002EF8EE 2019-04-19 00:02:50 16.4 27 23.5
002EF8EE 2019-04-18 23:28:51 16.4 27 23.4
002EF8EE 2019-04-18 22:54:52 16.4 27 23.3
002EF8EE 2019-04-18 22:20:53 16.4 27 23.3
002EF8EE 2019-04-18 21:46:54 16.4 27 23.3
002EF8EE 2019-04-18 21:12:54 16.5 27 23.4
002EF8EE 2019-04-18 20:38:55 16.5 27 23.3
002EF8EE 2019-04-18 20:04:56 16.5 27 23.3
002EF8EE 2019-04-18 19:30:57 16.4 27 23.3
002EF8EE 2019-04-18 18:56:57 16.4 27 23.2
002EF8EE 2019-04-18 18:22:58 16.4 27 23.1
002EF8EE 2019-04-18 17:48:59 16.4 27 23
002EF8EE 2019-04-18 17:14:58 16.4 27 22.8
002EF8EE 2019-04-18 16:40:58 16.4 27 22.7
002EF8EE 2019-04-18 16:06:59 16.4 27 22.7
002EF8EE 2019-04-18 15:32:59 16.3 27 22.6
002EF8EE 2019-04-18 14:59:00 16.2 27 22.5
002EF8EE 2019-04-18 14:25:00 16.2 27 22
002EF8EE 2019-04-18 13:51:00 16.2 27 21.7
002EF8EE 2019-04-18 13:17:01 16.2 26 21.5
002EF8EE 2019-04-18 12:43:01 16.2 26 21.7
002EF8EE 2019-04-18 12:09:01 16.2 26 21.7
002EF8EE 2019-04-18 11:35:01 16.2 26 21.6
002EF8EE 2019-04-18 11:01:00 16.2 26 21.6
002EF8EE 2019-04-18 10:27:00 16.1 26 21.4
002EF8EE 2019-04-18 09:53:01 16.1 26 21.2
002EF8EE 2019-04-18 09:19:05 16.2 26 21.6
002EF8EE 2019-04-18 08:45:03 16.2 26 21.7
002EF8EE 2019-04-18 08:11:04 16.2 26 21.7
002EF8EE 2019-04-18 07:37:06 16.2 26 21.5
002EF8EE 2019-04-18 07:03:07 16.2 26 21.5
002EF8EE 2019-04-18 06:29:09 16.2 26 21.6
002EF8EE 2019-04-18 05:55:11 16.2 26 21.9
002EF8EE 2019-04-18 05:21:13 16.2 26 22.1
002EF8EE 2019-04-18 04:47:15 16.3 26 22.2
002EF8EE 2019-04-18 04:13:17 16.4 26 22.2
002EF8EE 2019-04-18 03:39:19 16.4 26 22.4
002EF8EE 2019-04-18 03:05:21 16.4 26 22.3
002EF8EE 2019-04-18 02:31:23 16.4 26 22.2
002EF8EE 2019-04-18 01:57:25 16.6 26 22.1
002EF8EE 2019-04-18 01:23:26 16.6 26 22.1
002EF8EE 2019-04-18 00:49:27 16.6 26 22.1
002EF8EE 2019-04-18 00:15:29 16.6 25 22.1
002EF8EE 2019-04-17 23:41:30 16.8 25 22
002EF8EE 2019-04-17 23:07:31 16.8 25 21.8
002EF8EE 2019-04-17 22:33:32 16.7 25 21.7
002EF8EE 2019-04-17 21:59:32 16.8 25 21.6
002EF8EE 2019-04-17 21:25:33 16.7 25 21.4
002EF8EE 2019-04-17 20:51:34 16.7 25 21.3
002EF8EE 2019-04-17 20:17:35 16.8 25 22.2
002EF8EE 2019-04-17 19:43:36 16.7 25 23
002EF8EE 2019-04-17 19:09:37 16.8 25 22.8
002EF8EE 2019-04-17 18:35:38 16.8 25 22.7
002EF8EE 2019-04-17 18:01:40 16.8 25 22.6
002EF8EE 2019-04-17 17:27:39 16.8 25 22.6
002EF8EE 2019-04-17 16:53:43 16.8 25 22.6
002EF8EE 2019-04-17 16:19:39 16.8 25 22.5
002EF8EE 2019-04-17 15:45:39 16.8 25 22.3
002EF8EE 2019-04-17 15:11:39 16.9 24 22.1
002EF8EE 2019-04-17 14:37:39 17 24 22
002EF8EE 2019-04-17 12:55:37 17.1 24 21.9
002EF8EE 2019-04-17 12:21:37 17.1 24 21.6
002EF8EE 2019-04-17 11:47:37 17.1 24 21.6
002EF8EE 2019-04-17 11:13:37 17.1 24 21.6
002EF8EE 2019-04-17 10:39:37 17.2 24 21.5
002EF8EE 2019-04-17 10:05:36 17.3 24 21.5
002EF8EE 2019-04-17 09:31:35 17.2 24 21.4
002EF8EE 2019-04-17 08:57:34 17.4 24 22.4
002EF8EE 2019-04-17 08:23:34 17.5 24 22.4
002EF8EE 2019-04-17 07:49:33 17.6 24 22.4
002EF8EE 2019-04-17 07:15:32 17.7 24 22.5
002EF8EE 2019-04-17 06:41:31 17.8 24 22.5
002EF8EE 2019-04-17 06:07:30 17.9 24 22.7
002EF8EE 2019-04-17 05:33:30 17.9 24 22.6
002EF8EE 2019-04-17 04:59:29 17.9 23 21.6
002EF8EE 2019-04-17 04:25:28 18.1 23 20.2
002EF8EE 2019-04-17 03:51:27 18.1 23 20.1
002EF8EE 2019-04-17 03:17:28 18.1 23 20
002EF8EE 2019-04-17 02:43:29 18.2 23 19.9
002EF8EE 2019-04-17 02:09:26 18.3 23 20
002EF8EE 2019-04-17 01:35:25 18.3 23 20
002EF8EE 2019-04-17 01:01:24 18.3 23 20
002EF8EE 2019-04-17 00:27:24 18.3 23 19.8
002EF8EE 2019-04-16 23:53:23 18.5 23 19.9
002EF8EE 2019-04-16 23:19:22 18.6 23 19.7
002EF8EE 2019-04-16 22:45:21 18.7 22 20
002EF8EE 2019-04-16 22:11:20 18.9 22 20.3
002EF8EE 2019-04-16 21:37:20 19 22 20.4
002EF8EE 2019-04-16 21:03:18 19.2 22 20.7
002EF8EE 2019-04-16 20:29:16 19.3 22 20.9
002EF8EE 2019-04-16 19:55:14 19.4 22 21
002EF8EE 2019-04-16 19:21:17 19.4 22 21.2
002EF8EE 2019-04-16 18:47:12 19.6 22 19.8
002EF8EE 2019-04-16 18:13:11 19.6 22 20.1
002EF8EE 2019-04-16 17:05:08 20 22 20.2
002EF8EE 2019-04-16 15:57:04 20.2 22 20
002EF8EE 2019-04-16 15:23:04 20.5 22 20
002EF8EE 2019-04-16 14:49:02 20.7 22 19.7
002EF8EE 2019-04-16 13:41:01 20.9 22 19.8
002EF8EE 2019-04-16 13:06:56 20.9 22 19.8
002EF8EE 2019-04-16 12:32:56 20.9 22 19.8
002EF8EE 2019-04-16 11:58:55 20.9 22 20
002EF8EE 2019-04-16 11:24:55 20.9 22 20
002EF8EE 2019-04-16 10:50:50 20.9 22 20.1
002EF8EE 2019-04-16 10:16:46 20.8 22 20.1
002EF8EE 2019-04-16 09:42:45 20.9 22 20.1
002EF8EE 2019-04-16 09:08:41 20.8 22 20
002EF8EE 2019-04-16 08:34:39 20.9 22 20
002EF8EE 2019-04-16 08:00:36 20.9 22 19.9
002EF8EE 2019-04-16 07:26:34 20.9 22 19.8
002EF8EE 2019-04-16 06:52:31 20.9 22 19.7
002EF8EE 2019-04-16 06:18:28 20.8 22 21
002EF8EE 2019-04-16 05:44:28 20.9 22 21
002EF8EE 2019-04-16 05:10:28 20.9 22 20.9
002EF8EE 2019-04-16 04:36:23 20.9 22 20.6
002EF8EE 2019-04-16 04:02:25 20.9 21 20.5
002EF8EE 2019-04-16 03:28:24 20.9 21 20.3
002EF8EE 2019-04-16 02:54:20 20.9 21 20.2
002EF8EE 2019-04-16 02:20:20 20.9 21 19.9
002EF8EE 2019-04-16 01:46:18 20.9 21 19.9
002EF8EE 2019-04-16 01:12:15 20.9 21 20.6
002EF8EE 2019-04-16 00:38:12 20.9 21 21.8
002EF8EE 2019-04-16 00:04:10 20.9 21 21.9
002EF8EE 2019-04-15 23:30:07 20.9 21 22.1
002EF8EE 2019-04-15 22:56:05 21.1 21 22.7
002EF8EE 2019-04-15 22:22:01 21.1 21 22.9
002EF8EE 2019-04-15 21:47:59 21.1 21 22.9
002EF8EE 2019-04-15 21:13:56 21.1 20 23.3
002EF8EE 2019-04-15 20:39:52 21.1 20 23.8
002EF8EE 2019-04-15 20:05:47 21.1 20 23.9
002EF8EE 2019-04-15 19:31:44 21.1 20 24
002EF8EE 2019-04-15 18:57:41 21.2 20 24.2
002EF8EE 2019-04-15 18:23:38 21.3 20 24.4
002EF8EE 2019-04-15 17:49:36 21.3 20 24.6
002EF8EE 2019-04-15 17:15:34 21.5 19 24.7
002EF8EE 2019-04-15 16:41:31 21.5 19 24.8
002EF8EE 2019-04-15 16:07:28 21.6 19 24.4
002EF8EE 2019-04-15 15:33:26 21.7 19 24.4
002EF8EE 2019-04-15 14:59:23 21.8 19 24.5
002EF8EE 2019-04-15 14:25:22 21.9 18 24.6
002EF8EE 2019-04-15 13:51:17 22 18 24.9
002EF8EE 2019-04-15 13:17:14 22.1 18 25
002EF8EE 2019-04-15 12:43:13 22.2 17 25.1
002EF8EE 2019-04-15 12:09:10 22.4 16 25.2
002EF8EE 2019-04-15 11:35:04 22.3 15 25.3
002EF8EE 2019-04-15 11:00:59 22.3 16 25.1
002EF8EE 2019-04-15 10:26:56 22.2 16 24.6
002EF8EE 2019-04-15 09:52:51 22.2 16 24.6
002EF8EE 2019-04-15 09:18:47 22.1 16 24.6
002EF8EE 2019-04-15 08:44:43 22 16 24.4
002EF8EE 2019-04-15 08:10:40 21.9 16 24.5
002EF8EE 2019-04-15 07:36:35 21.8 16 24.6
002EF8EE 2019-04-15 07:02:32 21.8 16 24.5
002EF8EE 2019-04-15 06:28:28 21.8 16 24.3
002EF8EE 2019-04-15 05:54:26 21.7 16 24.2
002EF8EE 2019-04-15 05:20:22 21.7 16 24.2
002EF8EE 2019-04-15 04:46:20 21.7 17 24.1
002EF8EE 2019-04-15 04:12:16 21.7 17 24.5
002EF8EE 2019-04-15 03:38:12 21.7 17 24.6
002EF8EE 2019-04-15 03:04:08 21.7 17 24.6
002EF8EE 2019-04-15 02:30:04 21.7 17 24.6
002EF8EE 2019-04-15 01:56:00 21.7 17 24.5
002EF8EE 2019-04-15 01:21:55 21.7 17 24.5
002EF8EE 2019-04-15 00:47:51 21.8 17 24.5
002EF8EE 2019-04-15 00:13:47 21.7 17 24.4
002EF8EE 2019-04-14 23:39:44 21.8 17 24.3
002EF8EE 2019-04-14 23:05:40 21.7 17 24.3
002EF8EE 2019-04-14 22:31:37 21.8 17 24.4
002EF8EE 2019-04-14 21:57:33 21.8 17 24.3
002EF8EE 2019-04-14 21:23:30 21.9 18 24.4
002EF8EE 2019-04-14 20:49:27 21.9 18 24.5
002EF8EE 2019-04-14 20:15:23 21.9 17 24.6
002EF8EE 2019-04-14 19:41:18 21.9 17 24.7
002EF8EE 2019-04-14 19:07:15 21.9 17 24.8
002EF8EE 2019-04-14 18:33:12 22 17 24.8
002EF8EE 2019-04-14 17:59:08 21.9 17 24.6
002EF8EE 2019-04-14 17:25:03 21.9 17 24.5
002EF8EE 2019-04-14 16:51:00 21.9 17 24.4
002EF8EE 2019-04-14 16:16:57 21.8 17 24.3
002EF8EE 2019-04-14 15:42:53 21.8 17 24.3
002EF8EE 2019-04-14 15:08:48 21.9 17 24.3
002EF8EE 2019-04-14 14:34:44 21.8 17 24.5
002EF8EE 2019-04-14 14:00:39 21.9 17 24.1
002EF8EE 2019-04-14 13:26:35 21.9 18 23.9
002EF8EE 2019-04-14 12:52:31 21.9 18 23.9
002EF8EE 2019-04-14 12:18:26 21.9 18 24.1
002EF8EE 2019-04-14 11:44:22 21.9 18 24
002EF8EE 2019-04-14 11:10:19 21.9 18 24
002EF8EE 2019-04-14 10:36:17 21.9 18 24.1
002EF8EE 2019-04-14 10:02:14 21.8 18 24.1
002EF8EE 2019-04-14 09:28:10 21.8 18 24.1
002EF8EE 2019-04-14 08:54:07 21.8 17 24.2
002EF8EE 2019-04-14 08:20:03 21.8 17 24.1
002EF8EE 2019-04-14 07:45:58 21.8 17 24.1
002EF8EE 2019-04-14 07:11:54 21.7 17 24.1
002EF8EE 2019-04-14 06:37:49 21.8 17 23.9
002EF8EE 2019-04-14 06:03:45 21.8 17 23.9
002EF8EE 2019-04-14 05:29:42 21.8 17 23.9
002EF8EE 2019-04-14 04:55:38 21.7 17 23.8
002EF8EE 2019-04-14 04:21:33 21.8 17 23.8
002EF8EE 2019-04-14 03:47:29 21.8 17 23.9
002EF8EE 2019-04-14 03:13:25 21.8 17 23.8
002EF8EE 2019-04-14 02:39:21 21.8 17 23.9
002EF8EE 2019-04-14 02:05:17 21.9 17 24
002EF8EE 2019-04-14 01:31:13 21.9 17 24.1
002EF8EE 2019-04-14 00:57:09 21.8 17 24.2
002EF8EE 2019-04-14 00:23:05 22 17 24
002EF8EE 2019-04-13 23:49:01 21.9 17 24
002EF8EE 2019-04-13 23:14:58 21.9 17 23.8
002EF8EE 2019-04-13 22:40:55 21.9 17 24
002EF8EE 2019-04-13 22:06:50 22 17 23.7
002EF8EE 2019-04-13 21:32:46 21.9 17 23.6
002EF8EE 2019-04-13 20:58:42 22 17 23.6
002EF8EE 2019-04-13 20:24:37 22 17 23.6
002EF8EE 2019-04-13 19:50:32 22 17 23.6
002EF8EE 2019-04-13 19:16:27 22.1 17 23.6
002EF8EE 2019-04-13 18:42:22 22.1 17 23.5
002EF8EE 2019-04-13 18:08:19 22.2 17 23.6
002EF8EE 2019-04-13 17:34:14 22.2 17 23.6
002EF8EE 2019-04-13 17:00:11 22.2 17 23.5
002EF8EE 2019-04-13 16:26:08 22.2 17 23.5
002EF8EE 2019-04-13 15:52:04 22.2 17 23.3
002EF8EE 2019-04-13 15:17:59 22.2 17 23.4
002EF8EE 2019-04-13 14:43:57 22.2 17 23.4
002EF8EE 2019-04-13 14:09:53 22.2 17 23.4
002EF8EE 2019-04-13 13:35:49 22.3 17 23.5
002EF8EE 2019-04-13 13:01:45 22.3 17 23.6
002EF8EE 2019-04-13 12:27:41 22.3 16 23.5
002EF8EE 2019-04-13 11:53:36 22.4 17 23.4
002EF8EE 2019-04-13 11:19:32 22.3 17 23.6
002EF8EE 2019-04-13 10:45:27 22.2 17 23.5
002EF8EE 2019-04-13 10:11:24 22.2 17 23.5
002EF8EE 2019-04-13 09:37:20 22.2 17 23.6
002EF8EE 2019-04-13 09:03:18 22.2 16 23.7
002EF8EE 2019-04-13 08:29:14 22.2 16 23.6
002EF8EE 2019-04-13 07:55:11 22.2 16 24
002EF8EE 2019-04-13 07:21:06 22.2 16 24.2
002EF8EE 2019-04-13 06:47:02 22.2 16 24.2
002EF8EE 2019-04-13 06:12:59 22.2 16 24.3
002EF8EE 2019-04-13 05:38:54 22.2 16 24.3
002EF8EE 2019-04-13 05:04:49 22.2 16 24.3
002EF8EE 2019-04-13 04:30:45 22.2 16 24.7
002EF8EE 2019-04-13 03:56:41 22.2 16 25.1
002EF8EE 2019-04-13 03:22:37 22.3 16 25.2
002EF8EE 2019-04-13 02:48:34 22.4 16 25.1
002EF8EE 2019-04-13 02:14:30 22.4 16 25.2
002EF8EE 2019-04-13 01:40:26 22.4 17 25.3
002EF8EE 2019-04-13 01:06:22 22.4 17 25.4
002EF8EE 2019-04-13 00:32:17 22.4 17 25.4
002EF8EE 2019-04-12 23:58:12 22.4 17 25.5
002EF8EE 2019-04-12 23:24:08 22.5 17 25.4
002EF8EE 2019-04-12 22:50:03 22.6 17 25.6
002EF8EE 2019-04-12 22:16:00 22.6 17 25.5
002EF8EE 2019-04-12 21:41:56 22.6 17 25.7
002EF8EE 2019-04-12 21:07:51 22.7 17 25.7
002EF8EE 2019-04-12 20:33:47 22.8 17 25.8
002EF8EE 2019-04-12 19:59:42 22.8 16 26
002EF8EE 2019-04-12 19:25:38 22.8 16 25.9
002EF8EE 2019-04-12 18:51:34 22.8 16 26.2
002EF8EE 2019-04-12 18:17:29 23 16 26.4
002EF8EE 2019-04-12 17:43:23 23.1 16 26
002EF8EE 2019-04-12 17:09:16 23.2 17 26.1
002EF8EE 2019-04-12 16:35:11 23.1 16 26.3
002EF8EE 2019-04-12 16:01:06 23 17 26.5
002EF8EE 2019-04-12 15:27:01 23 18 26.9
002EF8EE 2019-04-12 14:52:57 22.8 18 27.7
002EF8EE 2019-04-12 14:18:52 22.6 18 26.5
002EF8EE 2019-04-12 13:44:47 22.2 19 22.3
002EF8EE 2019-04-12 13:10:42 21.3 20 10.2